| time (UTC) | temp F | wind direction | speed MPH | gust MPH | rain 1hr in | rain 24hr in | rain mn in | humidity % | barometer mb |
| 20260505123104 | 62 | 16 | 6.0 | 11.0 | 0.00 | 0.00 | 0.00 | 54 | 1008.2 |
| 20260505121540 | 61 | 4 | 8.0 | 12.0 | 0.00 | 0.00 | 0.00 | 57 | 1008.0 |
| 20260505120021 | 60 | 4 | 10.0 | 13.0 | 0.00 | 0.00 | 0.00 | 59 | 1008.0 |
| 20260505114517 | 59 | 354 | 10.0 | 13.0 | 0.00 | 0.00 | 0.00 | 62 | 1007.8 |
| 20260505113058 | 59 | 349 | 10.0 | 12.0 | 0.00 | 0.00 | 0.00 | 64 | 1007.8 |
| 20260505111602 | 59 | 22 | 4.0 | 5.0 | 0.00 | 0.00 | 0.00 | 63 | 1007.6 |
| 20260505101520 | 62 | 82 | 6.0 | 6.0 | 0.00 | 0.00 | 0.00 | 58 | 1006.5 |
| 20260505100005 | 63 | 353 | 8.0 | 9.0 | 0.00 | 0.00 | 0.00 | 57 | 1006.4 |
| 20260505094501 | 63 | 336 | 0.0 | 0.0 | 0.00 | 0.00 | 0.00 | 57 | 1006.3 |
| 20260505093048 | 62 | 262 | 0.0 | 0.0 | 0.00 | 0.00 | 0.00 | 57 | 1006.2 |
| 20260505091548 | 63 | 25 | 0.0 | 2.0 | 0.00 | 0.00 | 0.00 | 56 | 1006.2 |
| 20260505090042 | 63 | 58 | 4.0 | 5.0 | 0.00 | 0.00 | 0.00 | 55 | 1005.9 |
| 20260505084527 | 67 | 352 | 1.0 | 4.0 | 0.00 | 0.00 | 0.00 | 47 | 1005.8 |
| 20260505083011 | 69 | 320 | 1.0 | 5.0 | 0.00 | 0.00 | 0.00 | 42 | 1005.8 |
| 20260505081508 | 69 | 308 | 0.0 | 0.0 | 0.00 | 0.00 | 0.00 | 42 | 1005.8 |
| 20260505080055 | 69 | 320 | 0.0 | 0.0 | 0.00 | 0.00 | 0.00 | 43 | 1005.8 |
| 20260505074550 | 68 | 353 | 0.0 | 1.0 | 0.00 | 0.00 | 0.00 | 45 | 1005.7 |
| 20260505073045 | 67 | 20 | 1.0 | 4.0 | 0.00 | 0.00 | 0.00 | 45 | 1005.7 |
| 20260505071534 | 68 | 85 | 6.0 | 8.0 | 0.00 | 0.00 | 0.00 | 44 | 1005.5 |
| 20260505070019 | 69 | 255 | 3.0 | 6.0 | 0.00 | 0.00 | 0.00 | 41 | 1005.1 |
| 20260505064513 | 72 | 318 | 6.0 | 10.0 | 0.00 | 0.00 | 0.00 | 36 | 1004.8 |
| 20260505063100 | 70 | 301 | 3.0 | 7.0 | 0.00 | 0.00 | 0.00 | 39 | 1004.7 |
| 20260505061601 | 69 | 321 | 5.0 | 9.0 | 0.00 | 0.00 | 0.00 | 43 | 1004.8 |
| 20260505060038 | 69 | 336 | 0.0 | 3.0 | 0.00 | 0.00 | 0.00 | 40 | 1004.6 |
| 20260505054538 | 74 | 19 | 0.0 | 6.0 | 0.00 | 0.00 | 0.00 | 32 | 1004.4 |
| 20260505053021 | 72 | 29 | 1.0 | 9.0 | 0.00 | 0.00 | 0.00 | 34 | 1004.5 |
| 20260505051523 | 74 | 343 | 8.0 | 12.0 | 0.00 | 0.00 | 0.00 | 31 | 1004.3 |
| 20260505041553 | 82 | 333 | 6.0 | 9.0 | 0.00 | 0.00 | 0.00 | 22 | 1004.0 |
| 20260505040029 | 82 | 323 | 4.0 | 6.0 | 0.00 | 0.00 | 0.00 | 24 | 1003.9 |
| 20260505034526 | 82 | 320 | 4.0 | 5.0 | 0.00 | 0.00 | 0.00 | 23 | 1003.7 |
| 20260505033008 | 82 | 315 | 5.0 | 6.0 | 0.00 | 0.00 | 0.00 | 24 | 1003.6 |
| 20260505031508 | 82 | 316 | 5.0 | 6.0 | 0.00 | 0.00 | 0.00 | 25 | 1003.5 |
| 20260505030050 | 82 | 320 | 0.0 | 0.0 | 0.00 | 0.00 | 0.00 | 24 | 1003.5 |
| 20260505024550 | 82 | 328 | 0.0 | 0.0 | 0.00 | 0.00 | 0.00 | 25 | 1003.3 |
| 20260505023039 | 83 | 340 | 0.0 | 0.0 | 0.00 | 0.00 | 0.00 | 26 | 1003.3 |
| 20260505021534 | 85 | 276 | 0.0 | 0.0 | 0.00 | 0.00 | 0.00 | 25 | 1003.3 |
| 20260505020018 | 85 | 69 | 0.0 | 0.0 | 0.00 | 0.00 | 0.00 | 26 | 1003.4 |
| 20260505014513 | 86 | 103 | 0.0 | 1.0 | 0.00 | 0.00 | 0.00 | 26 | 1003.4 |
| 20260505013055 | 87 | 176 | 0.0 | 6.0 | 0.00 | 0.00 | 0.00 | 23 | 1003.5 |
| 20260505011603 | 86 | 146 | 3.0 | 7.0 | 0.00 | 0.00 | 0.00 | 23 | 1003.6 |
| 20260505010041 | 87 | 158 | 3.0 | 8.0 | 0.00 | 0.00 | 0.00 | 24 | 1003.7 |
| 20260505004544 | 87 | 179 | 0.0 | 8.0 | 0.00 | 0.00 | 0.00 | 25 | 1003.7 |
| 20260505003040 | 88 | 168 | 3.0 | 8.0 | 0.00 | 0.00 | 0.00 | 24 | 1003.7 |
| 20260505001542 | 88 | 158 | 5.0 | 9.0 | 0.00 | 0.00 | 0.00 | 24 | 1003.9 |
| 20260505000040 | 87 | 160 | 3.0 | 10.0 | 0.00 | 0.00 | 0.00 | 22 | 1003.9 |
| 20260504234548 | 88 | 115 | 5.0 | 11.0 | 0.00 | 0.00 | 0.00 | 22 | 1003.9 |
| 20260504233035 | 88 | 127 | 6.0 | 13.0 | 0.00 | 0.00 | 0.00 | 22 | 1003.9 |
| 20260504231536 | 88 | 68 | 1.0 | 8.0 | 0.00 | 0.00 | 0.00 | 19 | 1003.9 |
| 20260504230021 | 88 | 158 | 3.0 | 10.0 | 0.00 | 0.00 | 0.00 | 21 | 1004.1 |
| 20260504224520 | 88 | 117 | 4.0 | 10.0 | 0.00 | 0.00 | 0.00 | 21 | 1004.3 |
| 20260504223018 | 88 | 131 | 1.0 | 10.0 | 0.00 | 0.00 | 0.00 | 19 | 1004.4 |
| 20260504221519 | 87 | 158 | 5.0 | 13.0 | 0.00 | 0.00 | 0.00 | 23 | 1004.5 |
| 20260504220013 | 87 | 113 | 5.0 | 9.0 | 0.00 | 0.00 | 0.00 | 24 | 1004.8 |
| 20260504214512 | 88 | 48 | 9.0 | 13.0 | 0.00 | 0.00 | 0.00 | 17 | 1005.0 |
| 20260504213024 | 87 | 311 | 3.0 | 11.0 | 0.00 | 0.00 | 0.00 | 18 | 1005.2 |
| 20260504211512 | 87 | 100 | 9.0 | 12.0 | 0.00 | 0.00 | 0.00 | 20 | 1005.3 |
| 20260504210047 | 87 | 40 | 6.0 | 17.0 | 0.00 | 0.00 | 0.00 | 19 | 1005.6 |
| 20260504204541 | 86 | 259 | 0.0 | 6.0 | 0.00 | 0.00 | 0.00 | 20 | 1005.8 |
| 20260504203124 | 85 | 21 | 2.0 | 11.0 | 0.00 | 0.00 | 0.00 | 22 | 1005.9 |
| 20260504201525 | 85 | 39 | 9.0 | 15.0 | 0.00 | 0.00 | 0.00 | 22 | 1006.1 |
| 20260504200100 | 85 | 85 | 10.0 | 17.0 | 0.00 | 0.00 | 0.00 | 22 | 1006.2 |
| 20260504194606 | 84 | 94 | 14.0 | 19.0 | 0.00 | 0.00 | 0.00 | 21 | 1006.3 |
| 20260504193052 | 84 | 71 | 9.0 | 18.0 | 0.00 | 0.00 | 0.00 | 22 | 1006.5 |
| 20260504191642 | 83 | 25 | 9.0 | 19.0 | 0.00 | 0.00 | 0.00 | 22 | 1006.6 |
| 20260504190041 | 83 | 60 | 9.0 | 17.0 | 0.00 | 0.00 | 0.00 | 22 | 1006.8 |
| 20260504184537 | 83 | 32 | 9.0 | 19.0 | 0.00 | 0.00 | 0.00 | 23 | 1006.8 |
| 20260504183035 | 82 | 75 | 14.0 | 22.0 | 0.00 | 0.00 | 0.00 | 23 | 1006.9 |
| 20260504181534 | 81 | 89 | 12.0 | 18.0 | 0.00 | 0.00 | 0.00 | 23 | 1007.0 |
| 20260504180033 | 81 | 39 | 10.0 | 14.0 | 0.00 | 0.00 | 0.00 | 23 | 1007.1 |
| 20260504174530 | 81 | 98 | 9.0 | 19.0 | 0.00 | 0.00 | 0.00 | 27 | 1007.2 |
| 20260504173020 | 79 | 92 | 5.0 | 11.0 | 0.00 | 0.00 | 0.00 | 28 | 1007.2 |
| 20260504171505 | 78 | 87 | 1.0 | 8.0 | 0.00 | 0.00 | 0.00 | 34 | 1007.3 |